FW9002 Weather Reports


time (UTC)temp
C
wind
direction
speed
KPH
gust
KPH
rain 1hr
cm
rain 24hr
cm
rain mn
cm
humidity
%
barometer
mb
20260506034207 18 278 0.0 0.0 0.00 0.48 0.48 37 1011.5
20260506033704 19 307 1.6 1.6 0.00 0.48 0.48 36 1011.4
20260506033200 19 306 0.0 0.0 0.00 0.48 0.48 36 1011.3
20260506032658 19 304 1.6 1.6 0.00 0.48 0.48 35 1011.3
20260506032155 20 301 3.2 3.2 0.00 0.48 0.48 34 1011.2
20260506031651 20 276 3.2 3.2 0.00 0.48 0.48 33 1010.9
20260506031148 20 330 6.4 9.7 0.00 0.48 0.48 33 1011.1
20260506030647 20 319 3.2 4.8 0.00 0.48 0.48 32 1011.0
20260506030144 20 299 3.2 3.2 0.00 0.48 0.48 32 1010.9
20260506025640 20 326 0.0 0.0 0.00 0.48 0.48 31 1010.9
20260506025136 20 266 1.6 1.6 0.00 0.48 0.48 31 1011.1
20260506024634 20 337 4.8 9.7 0.00 0.48 0.48 31 1010.9
20260506024130 20 338 3.2 3.2 0.00 0.48 0.48 31 1010.5
20260506023627 20 347 4.8 9.7 0.00 0.48 0.48 31 1010.4
20260506023124 20 268 3.2 3.2 0.00 0.48 0.48 30 1010.5
20260506022621 20 280 1.6 3.2 0.00 0.48 0.48 31 1010.3
20260506022119 20 283 3.2 3.2 0.00 0.48 0.48 30 1010.1
20260506021616 20 325 1.6 1.6 0.00 0.48 0.48 30 1010.1
20260506021113 20 330 6.4 11.3 0.00 0.48 0.48 30 1010.1
20260506020610 20 282 6.4 8.0 0.00 0.48 0.48 31 1009.9
20260506020108 21 322 8.0 9.7 0.00 0.48 0.48 31 1009.7
20260506015605 21 307 4.8 8.0 0.00 0.48 0.48 31 1009.8
20260506015102 21 312 4.8 8.0 0.00 0.48 0.48 31 1009.8
20260506014600 21 302 8.0 9.7 0.00 0.48 0.48 31 1009.7
20260506014055 21 292 11.3 14.5 0.00 0.48 0.48 31 1009.7
20260506013554 22 274 6.4 9.7 0.00 0.48 0.48 31 1009.7
20260506013050 22 309 6.4 14.5 0.00 0.48 0.48 31 1009.3
20260506012546 22 309 4.8 9.7 0.00 0.48 0.48 31 1009.7
20260506012043 22 292 6.4 4.8 0.00 0.48 0.48 29 1009.6
20260506011541 22 294 6.4 9.7 0.00 0.48 0.48 28 1009.7
20260506011036 23 305 3.2 3.2 0.00 0.48 0.48 28 1009.5
20260506010531 23 287 8.0 14.5 0.00 0.48 0.48 28 1009.5
20260506010027 23 335 4.8 8.0 0.00 0.48 0.48 28 1009.1
20260506005524 23 271 11.3 16.1 0.00 0.48 0.48 26 1009.0
20260506005020 23 246 4.8 4.8 0.00 0.48 0.48 26 1009.0
20260506004517 23 254 9.7 14.5 0.00 0.48 0.48 26 1009.0
20260506004014 23 307 3.2 3.2 0.00 0.48 0.48 26 1008.9
20260506003510 23 289 4.8 8.0 0.00 0.48 0.48 26 1009.2
20260506003006 23 315 8.0 11.3 0.00 0.48 0.48 26 1009.0
20260506002502 23 314 3.2 4.8 0.00 0.48 0.48 27 1008.9
20260506001958 24 249 3.2 3.2 0.00 0.48 0.48 26 1009.1
20260506001455 24 304 8.0 9.7 0.00 0.48 0.48 25 1008.9
20260506000952 24 290 6.4 8.0 0.00 0.48 0.48 26 1009.0
20260506000449 24 298 9.7 12.9 0.00 0.48 0.48 26 1008.8
20260505235946 25 267 9.7 17.7 0.00 0.48 0.48 26 1008.9
20260505235445 24 294 11.3 14.5 0.00 0.48 0.48 26 1008.5
20260505234941 23 274 6.4 9.7 0.00 0.48 0.48 27 1008.6
20260505234439 23 314 6.4 12.9 0.00 0.48 0.48 28 1008.5
20260505233935 24 254 11.3 14.5 0.00 0.48 0.48 26 1008.6
20260505233433 23 233 16.1 20.9 0.00 0.48 0.48 27 1008.5
20260505232930 23 294 4.8 4.8 0.00 0.48 0.48 29 1008.6
20260505232428 23 230 8.0 9.7 0.00 0.48 0.48 28 1008.5
20260505231925 24 227 3.2 4.8 0.00 0.48 0.48 28 1008.8
20260505231422 24 298 8.0 9.7 0.00 0.48 0.48 26 1008.6
20260505230920 23 222 3.2 3.2 0.00 0.48 0.48 26 1008.6
20260505230418 24 329 6.4 8.0 0.00 0.48 0.48 27 1008.6
20260505225914 25 236 8.0 11.3 0.00 0.48 0.48 25 1008.8
20260505225411 25 190 4.8 4.8 0.00 0.48 0.48 25 1008.5
20260505224906 25 295 3.2 4.8 0.00 0.48 0.48 26 1008.9
20260505224404 25 340 4.8 8.0 0.00 0.48 0.48 26 1008.9
20260505223901 24 251 14.5 14.5 0.00 0.48 0.48 26 1008.8
20260505223358 24 200 12.9 22.5 0.00 0.48 0.48 27 1009.0
20260505222853 25 267 9.7 12.9 0.00 0.48 0.48 25 1009.1
20260505222350 24 297 11.3 14.5 0.00 0.48 0.48 28 1009.1
20260505221847 25 301 11.3 14.5 0.00 0.48 0.48 26 1009.2
20260505221344 24 185 9.7 12.9 0.00 0.48 0.48 27 1009.3
20260505220841 25 272 8.0 11.3 0.00 0.48 0.48 28 1009.0
20260505220338 24 265 3.2 3.2 0.00 0.48 0.48 30 1009.2
20260505215836 24 270 11.3 16.1 0.00 0.48 0.48 28 1009.2
20260505215333 24 266 6.4 11.3 0.00 0.48 0.48 27 1009.5
20260505214831 25 280 14.5 20.9 0.00 0.48 0.48 29 1009.6
20260505214329 24 285 9.7 16.1 0.00 0.48 0.48 28 1009.6
20260505213825 24 304 14.5 24.1 0.00 0.48 0.48 27 1009.6
20260505213323 24 312 12.9 24.1 0.00 0.48 0.48 27 1009.5
20260505212819 24 288 4.8 8.0 0.00 0.48 0.48 29 1009.5
20260505212317 24 335 25.7 29.0 0.00 0.48 0.48 27 1009.7
20260505211812 24 301 8.0 12.9 0.00 0.48 0.48 30 1009.7
20260505211310 24 272 8.0 11.3 0.00 0.48 0.48 29 1009.8
20260505210806 24 276 17.7 27.4 0.00 0.48 0.48 29 1009.7
20260505210303 25 274 12.9 14.5 0.00 0.48 0.48 30 1010.0
20260505205800 24 237 6.4 8.0 0.00 0.48 0.48 32 1009.8
20260505205259 24 272 17.7 25.7 0.00 0.48 0.48 31 1010.0
20260505204755 24 257 9.7 12.9 0.00 0.48 0.48 33 1009.9
20260505204253 24 327 4.8 8.0 0.00 0.48 0.48 32 1010.0
20260505203750 24 256 9.7 14.5 0.00 0.48 0.48 33 1010.0
20260505203247 23 299 8.0 12.9 0.00 0.48 0.48 34 1009.9
20260505202742 23 265 8.0 9.7 0.00 0.48 0.48 35 1010.0
20260505202239 23 254 9.7 12.9 0.00 0.48 0.48 34 1009.9
20260505201735 22 303 8.0 9.7 0.00 0.48 0.48 36 1010.0
20260505201233 22 310 6.4 9.7 0.00 0.48 0.48 37 1010.2
20260505200731 22 295 8.0 11.3 0.00 0.48 0.48 38 1010.1
20260505200228 22 275 8.0 9.7 0.00 0.48 0.48 40 1010.5
20260505195723 22 312 8.0 9.7 0.00 0.48 0.48 42 1010.2
20260505195221 22 258 6.4 9.7 0.00 0.48 0.48 42 1010.3
20260505194718 22 261 1.6 3.2 0.00 0.48 0.48 47 1010.4
20260505194214 21 333 1.6 3.2 0.00 0.48 0.48 47 1010.3
20260505193710 22 357 4.8 4.8 0.00 0.48 0.48 47 1010.4
20260505193208 22 294 1.6 1.6 0.00 0.48 0.48 48 1010.2
20260505192707 22 124 1.6 1.6 0.00 0.48 0.48 48 1010.5
20260505192204 22 106 1.6 3.2 0.00 0.48 0.48 47 1010.5
20260505191702 21 99 1.6 1.6 0.00 0.48 0.48 50 1010.5
20260505191200 21 86 1.6 1.6 0.00 0.48 0.48 50 1010.5
20260505190656 21 68 1.6 1.6 0.00 0.48 0.48 52 1010.6
20260505190155 21 67 0.0 0.0 0.00 0.48 0.48 52 1010.9
20260505185653 21 341 1.6 1.6 0.00 0.48 0.48 49 1011.1
20260505185149 21 0 0.0 0.0 0.00 0.48 0.48 51 1011.2
20260505184645 21 56 0.0 0.0 0.00 0.48 0.48 53 1011.2
20260505184143 21 21 0.0 0.0 0.00 0.48 0.48 52 1011.4
20260505183639 20 26 1.6 3.2 0.00 0.48 0.48 52 1011.5
20260505183137 20 60 1.6 1.6 0.00 0.48 0.48 52 1011.4
20260505182633 20 10 1.6 1.6 0.00 0.48 0.48 54 1011.5
20260505182130 20 246 1.6 1.6 0.00 0.48 0.48 53 1011.4
20260505181626 20 223 3.2 3.2 0.00 0.48 0.48 52 1011.7
20260505181124 20 313 3.2 3.2 0.00 0.48 0.48 54 1011.6
20260505180620 20 264 3.2 3.2 0.00 0.48 0.48 55 1011.8
20260505180118 21 356 1.6 1.6 0.00 0.48 0.48 53 1011.7
20260505175613 21 57 1.6 1.6 0.00 0.48 0.48 54 1011.7
20260505175110 21 300 4.8 4.8 0.00 0.48 0.48 52 1011.6
20260505174607 21 245 3.2 4.8 0.00 0.48 0.48 54 1011.7
20260505174103 20 184 1.6 1.6 0.00 0.48 0.48 54 1012.0
20260505173559 20 299 0.0 0.0 0.00 0.48 0.48 56 1011.7
20260505173056 20 254 1.6 3.2 0.00 0.48 0.48 56 1011.7
20260505172554 20 16 1.6 1.6 0.00 0.48 0.48 57 1011.7
20260505172050 20 157 0.0 0.0 0.00 0.48 0.48 58 1011.9
20260505171545 20 258 3.2 3.2 0.00 0.48 0.48 58 1012.0
20260505171043 20 62 0.0 0.0 0.00 0.48 0.48 58 1011.6
20260505170539 20 69 1.6 1.6 0.00 0.48 0.48 58 1011.7
20260505170036 20 9 1.6 1.6 0.00 0.48 0.48 58 1011.8
20260505165531 20 328 4.8 4.8 0.00 0.48 0.48 61 1011.7
20260505165027 20 93 0.0 0.0 0.00 0.48 0.48 62 1011.8
20260505164523 19 6 0.0 0.0 0.00 0.48 0.48 65 1011.5
20260505164021 18 63 1.6 3.2 0.00 0.48 0.48 66 1011.8
20260505163519 18 23 1.6 1.6 0.00 0.48 0.48 65 1011.9
20260505163016 18 1 1.6 3.2 0.00 0.48 0.48 67 1011.8
20260505162509 18 266 0.0 0.0 0.00 0.48 0.48 67 1011.9
20260505162006 18 300 1.6 1.6 0.00 0.48 0.48 67 1011.9
20260505161503 18 194 0.0 0.0 0.00 0.48 0.48 70 1011.9
20260505161000 17 193 0.0 0.0 0.00 0.48 0.48 68 1011.9
20260505160458 18 156 1.6 0.0 0.00 0.48 0.48 68 1012.0
20260505152934 17 184 0.0 0.0 0.00 0.48 0.48 82 1011.7
20260505152432 17 183 0.0 0.0 0.00 0.48 0.48 78 1011.5
20260505151931 17 202 0.0 0.0 0.00 0.48 0.48 81 1011.7
20260505151422 17 202 0.0 0.0 0.00 0.48 0.48 83 1011.5
20260505150920 17 202 0.0 0.0 0.00 0.48 0.48 84 1011.7
20260505150416 17 202 0.0 0.0 0.00 0.48 0.48 84 1011.6
20260505140346 15 94 0.0 0.0 0.00 0.48 0.48 91 1011.4
20260505130309 15 123 0.0 0.0 0.00 0.48 0.48 93 1011.0
20260505124800 15 125 0.0 0.0 0.00 0.48 0.48 94 1010.6
20260505124256 15 125 0.0 0.0 0.18 0.48 0.48 94 1010.9
20260505123752 15 126 0.0 0.0 0.18 0.48 0.48 93 1010.6
20260505123249 15 125 0.0 0.0 0.00 0.46 0.46 93 1010.6
20260505122745 15 126 0.0 0.0 0.00 0.46 0.46 93 1010.5
20260505122243 15 126 0.0 0.0 0.00 0.46 0.46 93 1010.4
20260505121739 15 111 0.0 0.0 0.00 0.46 0.46 93 1010.4
20260505121236 15 111 0.0 0.0 0.00 0.46 0.46 93 1010.3
20260505120732 14 111 0.0 0.0 0.00 0.46 0.46 93 1010.2
20260505120228 14 111 0.0 0.0 0.00 0.46 0.46 93 1010.4
20260505115727 14 112 1.6 1.6 0.00 0.46 0.46 94 1010.4
20260505115225 14 111 0.0 0.0 0.18 0.46 0.46 93 1010.3
20260505114722 14 111 0.0 0.0 0.18 0.46 0.46 93 1010.1
20260505114218 14 111 0.0 0.0 0.00 0.43 0.43 93 1010.1
20260505113715 14 111 0.0 0.0 0.00 0.43 0.43 93 1010.1
20260505113212 14 111 0.0 0.0 0.00 0.43 0.43 92 1010.4
20260505112708 14 111 0.0 0.0 0.00 0.43 0.43 92 1010.6
20260505112206 14 97 0.0 0.0 0.00 0.43 0.43 92 1010.6
20260505111705 14 97 0.0 0.0 0.00 0.43 0.43 92 1010.3
20260505111201 14 96 0.0 0.0 0.13 0.43 0.43 91 1010.3
20260505110658 14 96 0.0 0.0 0.13 0.43 0.43 91 1010.5
20260505110155 14 106 0.0 0.0 0.00 0.41 0.41 91 1010.9
20260505102131 14 69 1.6 1.6 0.13 0.38 0.38 92 1011.3
20260505101629 14 72 0.0 1.6 0.00 0.36 0.36 92 1011.5
20260505101125 14 66 1.6 1.6 0.00 0.36 0.36 92 1011.5
20260505100621 14 79 0.0 0.0 0.00 0.36 0.36 92 1011.7
20260505100119 14 69 1.6 1.6 0.00 0.36 0.36 92 1011.5
20260505095615 14 62 0.0 0.0 0.00 0.36 0.36 92 1012.0
20260505095111 14 47 3.2 4.8 0.18 0.36 0.36 92 1012.0
20260505094608 14 68 0.0 0.0 0.18 0.36 0.36 91 1011.8
20260505094104 14 85 1.6 1.6 0.13 0.33 0.33 92 1012.0
20260505093600 14 99 6.4 9.7 0.13 0.33 0.33 92 1011.4
20260505093058 15 81 3.2 3.2 0.18 0.30 0.30 92 1011.8
20260505092555 14 74 4.8 4.8 0.18 0.30 0.30 92 1012.6
20260505092054 14 81 3.2 3.2 0.13 0.28 0.28 92 1012.5
20260505091550 14 71 4.8 4.8 0.13 0.28 0.28 92 1012.1
20260505091049 14 90 3.2 9.7 0.18 0.25 0.25 92 1012.4
20260505090546 15 89 3.2 3.2 0.18 0.25 0.25 91 1012.4
20260505090044 15 84 4.8 4.8 0.00 0.23 0.23 91 1012.8
20260505085541 15 108 3.2 3.2 0.00 0.23 0.23 91 1012.8
20260505085039 15 105 4.8 4.8 0.00 0.23 0.23 91 1012.8
20260505084537 15 89 4.8 11.3 0.13 0.23 0.23 92 1012.8
20260505084035 15 98 3.2 3.2 0.13 0.23 0.23 92 1013.1
20260505083532 15 103 3.2 3.2 0.00 0.20 0.20 92 1013.3
20260505083029 15 83 1.6 1.6 0.00 0.20 0.20 92 1013.4
20260505082524 15 114 1.6 3.2 0.00 0.20 0.20 93 1013.8
20260505082021 15 86 1.6 1.6 0.18 0.20 0.20 93 1013.6
20260505081518 15 92 1.6 1.6 0.18 0.20 0.20 93 1013.8
20260505081015 15 110 0.0 1.6 0.13 0.18 0.18 93 1013.9
20260505080511 15 113 3.2 3.2 0.13 0.18 0.18 93 1014.0
20260505080008 15 101 1.6 1.6 0.18 0.15 0.15 93 1014.0
20260505075504 15 126 3.2 3.2 0.36 0.15 0.15 93 1014.2
20260505075001 15 97 0.0 0.0 0.30 0.13 0.13 93 1014.3
20260505074458 15 86 1.6 3.2 0.13 0.10 0.10 93 1014.4
20260505073955 15 88 0.0 0.0 0.13 0.10 0.10 92 1014.6
20260505073452 15 88 0.0 1.6 0.18 0.08 0.08 92 1014.6
20260505072950 15 88 1.6 1.6 0.18 0.08 0.08 92 1014.5
20260505072446 15 88 0.0 0.0 0.13 0.05 0.05 93 1014.3
20260505071942 15 88 0.0 0.0 0.30 0.05 0.05 92 1014.3
20260505071438 15 88 0.0 0.0 0.18 0.03 0.03 92 1014.0
20260505070936 15 88 1.6 1.6 0.00 0.00 0.00 92 1014.3
20260505070433 15 88 0.0 0.0 0.13 0.00 0.00 92 1014.3
20260505065928 15 88 0.0 1.6 0.13 0.81 0.81 92 1014.0
20260505065425 15 93 0.0 0.0 0.00 0.79 0.79 92 1014.0
20260505064922 15 104 0.0 0.0 0.18 0.79 0.79 92 1013.9
20260505064419 15 106 0.0 0.0 0.30 0.79 0.79 92 1014.3
20260505063917 15 106 0.0 0.0 0.13 0.76 0.76 92 1014.0
20260505063413 15 109 0.0 0.0 0.30 0.76 0.76 92 1014.0
20260505062910 15 113 1.6 1.6 0.30 0.74 0.74 92 1014.0
20260505062408 15 124 0.0 0.0 0.30 0.71 0.71 91 1013.9
20260505061904 15 126 1.6 1.6 0.36 0.69 0.69 90 1014.1
20260505061402 15 85 1.6 1.6 0.18 0.66 0.66 90 1014.2
20260505060859 15 82 0.0 0.0 0.13 0.64 0.64 89 1014.2
20260505060356 15 80 4.8 3.2 0.13 0.64 0.64 88 1014.2
20260505055852 15 100 1.6 1.6 0.00 0.61 0.61 88 1014.0
20260505055348 15 73 1.6 1.6 0.18 0.61 0.61 89 1014.0
20260505054846 15 86 0.0 0.0 0.18 0.61 0.61 89 1014.1
20260505054343 15 86 1.6 1.6 0.00 0.58 0.58 89 1013.5
20260505053841 15 109 1.6 1.6 0.00 0.58 0.58 89 1013.8
20260505053338 15 104 0.0 0.0 0.13 0.58 0.58 87 1013.9
20260505052834 15 108 0.0 0.0 0.13 0.58 0.58 87 1014.1
20260505052331 15 117 0.0 1.6 0.18 0.56 0.56 87 1014.1
20260505051828 15 121 1.6 1.6 0.18 0.56 0.56 88 1014.0
20260505051326 15 112 1.6 1.6 0.00 0.53 0.53 87 1013.9
20260505050824 15 73 0.0 0.0 0.00 0.53 0.53 87 1013.8
20260505050322 15 57 0.0 0.0 0.00 0.53 0.53 85 1014.0
20260505041746 15 96 0.0 0.0 0.00 0.51 0.51 81 1013.9
20260505041243 15 129 1.6 3.2 0.00 0.51 0.51 81 1014.0
20260505040741 15 221 0.0 0.0 0.00 0.51 0.51 80 1013.9
20260505040238 15 222 0.0 0.0 0.00 0.51 0.51 78 1013.9
20260505035735 15 176 3.2 3.2 0.00 0.51 0.51 80 1013.6
20260505035231 15 56 3.2 3.2 0.00 0.51 0.51 79 1013.5
20260505034728 15 115 3.2 4.8 0.00 0.51 0.51 79 1013.4
20260505034225 15 141 3.2 3.2 0.00 0.51 0.51 78 1013.4